• In India
  • List of Countries
  • For 7 days
  • Water Temperature
  • Satellite Maps
  • Weather Map
  • Weather Widgets
  • user-avatar
    Login

    Hourly Weather Czernin

    Today, 22 August, Wednesday

    Time Temperature Precipitation Wind Pressure Humidity
    00:00 +14°C° 0 mm 1 mps 764 mmHg 85%
    01:00 +14°C° 0 mm 1 mps 764 mmHg 86%
    02:00 +13°C° 0 mm 1 mps 764 mmHg 87%
    03:00 +13°C° 0 mm 2 mps 764 mmHg 88%
    04:00 +13°C° 0 mm 2 mps 764 mmHg 89%
    05:00 +14°C° 0 mm 2 mps 764 mmHg 85%
    06:00 +15°C° 0 mm 2 mps 764 mmHg 80%
    07:00 +16°C° 0 mm 2 mps 764 mmHg 76%
    08:00 +18°C° 0 mm 2 mps 764 mmHg 68%
    09:00 +20°C° 0 mm 2 mps 764 mmHg 61%
    10:00 +21°C° 0 mm 2 mps 764 mmHg 53%
    11:00 +23°C° 0 mm 2 mps 764 mmHg 49%
    12:00 +24°C° 0 mm 1 mps 763 mmHg 45%
    13:00 +25°C° 0 mm 1 mps 763 mmHg 42%
    14:00 +26°C° 0 mm 1 mps 762 mmHg 42%
    15:00 +26°C° 0 mm 1 mps 762 mmHg 41%
    16:00 +26°C° 0 mm 2 mps 762 mmHg 41%
    17:00 +24°C° 0 mm 2 mps 761 mmHg 47%
    18:00 +23°C° 0 mm 2 mps 761 mmHg 53%
    19:00 +20°C° 0 mm 2 mps 761 mmHg 60%
    20:00 +19°C° 0 mm 3 mps 761 mmHg 61%
    21:00 +19°C° 0 mm 3 mps 761 mmHg 62%
    22:00 +18°C° 0 mm 3 mps 761 mmHg 63%
    23:00 +18°C° 0 mm 3 mps 760 mmHg 64%

    Tomorrow, 23 August, Thursday

    Time Temperature Precipitation Wind Pressure Humidity
    00:00 +18°C° 0 mm 3 mps 760 mmHg 65%
    01:00 +17°C° 0 mm 4 mps 760 mmHg 66%
    02:00 +17°C° 0 mm 4 mps 759 mmHg 68%
    03:00 +17°C° 0 mm 4 mps 759 mmHg 70%
    04:00 +17°C° 0 mm 4 mps 759 mmHg 72%
    05:00 +18°C° 0 mm 4 mps 759 mmHg 70%
    06:00 +19°C° 0 mm 4 mps 758 mmHg 69%
    07:00 +20°C° 0 mm 4 mps 758 mmHg 68%
    08:00 +22°C° 0 mm 4 mps 758 mmHg 63%
    09:00 +25°C° 0 mm 3 mps 758 mmHg 59%
    10:00 +27°C° 0 mm 3 mps 758 mmHg 54%
    11:00 +28°C° 0 mm 3 mps 757 mmHg 51%
    12:00 +29°C° 0 mm 3 mps 757 mmHg 48%
    13:00 +29°C° 0 mm 2 mps 757 mmHg 46%
    14:00 +29°C° 0 mm 2 mps 756 mmHg 47%
    15:00 +29°C° 0 mm 2 mps 756 mmHg 49%
    16:00 +29°C° 0 mm 2 mps 756 mmHg 51%
    17:00 +28°C° 0 mm 2 mps 755 mmHg 54%
    18:00 +26°C° 0 mm 2 mps 755 mmHg 58%
    19:00 +25°C° 0 mm 2 mps 755 mmHg 62%
    20:00 +25°C° 0.1 mm 2 mps 755 mmHg 64%
    21:00 +24°C° 0.1 mm 3 mps 755 mmHg 66%
    22:00 +22°C° 0.1 mm 3 mps 755 mmHg 68%
    23:00 +22°C° 0.1 mm 3 mps 754 mmHg 71%

    Day after tomorrow, 24 August, Friday

    Time Temperature Precipitation Wind Pressure Humidity
    00:00 +21°C° 0.1 mm 4 mps 754 mmHg 74%
    01:00 +20°C° 0.1 mm 4 mps 753 mmHg 77%
    02:00 +20°C° 0 mm 4 mps 753 mmHg 79%
    03:00 +20°C° 0 mm 4 mps 753 mmHg 81%
    04:00 +19°C° 0 mm 4 mps 752 mmHg 83%
    05:00 +20°C° 0.1 mm 4 mps 752 mmHg 81%
    06:00 +21°C° 0.1 mm 4 mps 752 mmHg 79%
    07:00 +22°C° 0.1 mm 4 mps 752 mmHg 77%
    08:00 +23°C° 0.2 mm 4 mps 752 mmHg 73%
    09:00 +25°C° 0.2 mm 4 mps 752 mmHg 68%
    10:00 +27°C° 0.2 mm 4 mps 752 mmHg 64%
    11:00 +26°C° 0.8 mm 4 mps 752 mmHg 66%
    12:00 +26°C° 0.8 mm 4 mps 752 mmHg 68%
    13:00 +26°C° 0.8 mm 4 mps 751 mmHg 70%
    14:00 +23°C° 0.9 mm 4 mps 752 mmHg 75%
    15:00 +22°C° 0.9 mm 4 mps 752 mmHg 80%
    16:00 +21°C° 0.9 mm 4 mps 752 mmHg 84%
    17:00 +20°C° 0.4 mm 4 mps 752 mmHg 85%
    18:00 +19°C° 0.4 mm 4 mps 752 mmHg 86%
    19:00 +18°C° 0.4 mm 4 mps 752 mmHg 87%
    20:00 +18°C° 0 mm 4 mps 753 mmHg 87%
    21:00 +17°C° 0 mm 4 mps 753 mmHg 86%
    22:00 +17°C° 0 mm 4 mps 753 mmHg 86%
    23:00 +17°C° 0 mm 4 mps 753 mmHg 85%

    25 August, Saturday

    Time Temperature Precipitation Wind Pressure Humidity
    00:00 +15°C° 0 mm 4 mps 753 mmHg 84%
    01:00 +15°C° 0 mm 4 mps 754 mmHg 84%
    02:00 +15°C° 0.1 mm 4 mps 754 mmHg 83%
    03:00 +14°C° 0.1 mm 4 mps 754 mmHg 83%
    04:00 +14°C° 0.1 mm 4 mps 754 mmHg 83%
    05:00 +14°C° 0 mm 5 mps 754 mmHg 82%
    06:00 +14°C° 0 mm 5 mps 754 mmHg 81%
    07:00 +14°C° 0 mm 5 mps 755 mmHg 79%
    08:00 +15°C° 0 mm 6 mps 755 mmHg 72%
    09:00 +16°C° 0 mm 6 mps 755 mmHg 64%
    10:00 +17°C° 0 mm 6 mps 755 mmHg 56%
    11:00 +19°C° 0 mm 5 mps 755 mmHg 52%
    12:00 +19°C° 0 mm 5 mps 755 mmHg 48%
    13:00 +20°C° 0 mm 5 mps 755 mmHg 45%
    14:00 +20°C° 0 mm 4 mps 755 mmHg 44%
    15:00 +20°C° 0 mm 4 mps 755 mmHg 44%
    16:00 +20°C° 0 mm 3 mps 754 mmHg 43%
    17:00 +19°C° 0 mm 3 mps 755 mmHg 46%
    18:00 +18°C° 0 mm 3 mps 755 mmHg 50%
    19:00 +17°C° 0 mm 2 mps 755 mmHg 53%
    20:00 +16°C° 0.1 mm 2 mps 755 mmHg 55%
    21:00 +16°C° 0.1 mm 3 mps 755 mmHg 57%
    22:00 +14°C° 0.1 mm 3 mps 755 mmHg 59%
    23:00 +13°C° 0.1 mm 3 mps 755 mmHg 59%

    26 August, Sunday

    Time Temperature Precipitation Wind Pressure Humidity
    00:00 +13°C° 0.1 mm 3 mps 755 mmHg 59%
    01:00 +13°C° 0.1 mm 3 mps 755 mmHg 60%
    02:00 +12°C° 0.1 mm 3 mps 755 mmHg 61%
    03:00 +12°C° 0.1 mm 3 mps 755 mmHg 63%
    04:00 +12°C° 0.1 mm 3 mps 755 mmHg 64%
    05:00 +12°C° 0.1 mm 4 mps 756 mmHg 64%
    06:00 +13°C° 0.1 mm 4 mps 756 mmHg 65%
    07:00 +14°C° 0.1 mm 4 mps 756 mmHg 65%
    08:00 +15°C° 0.1 mm 4 mps 756 mmHg 61%
    09:00 +16°C° 0.1 mm 5 mps 756 mmHg 57%
    10:00 +19°C° 0.1 mm 5 mps 756 mmHg 54%
    11:00 +19°C° 0.1 mm 5 mps 756 mmHg 52%
    12:00 +20°C° 0.1 mm 5 mps 756 mmHg 50%
    13:00 +20°C° 0.1 mm 6 mps 757 mmHg 49%
    14:00 +20°C° 0.1 mm 6 mps 757 mmHg 50%
    15:00 +20°C° 0.1 mm 6 mps 757 mmHg 52%
    16:00 +19°C° 0.1 mm 6 mps 757 mmHg 54%
    17:00 +17°C° 0 mm 5 mps 757 mmHg 60%
    18:00 +15°C° 0 mm 5 mps 758 mmHg 66%
    19:00 +14°C° 0 mm 4 mps 758 mmHg 72%
    20:00 +14°C° 0.1 mm 4 mps 758 mmHg 73%
    21:00 +13°C° 0.1 mm 4 mps 759 mmHg 74%
    22:00 +12°C° 0.1 mm 5 mps 759 mmHg 75%
    23:00 +12°C° 0.1 mm 5 mps 759 mmHg 75%

    27 August, Monday

    Time Temperature Precipitation Wind Pressure Humidity
    00:00 +12°C° 0.1 mm 5 mps 760 mmHg 75%
    01:00 +12°C° 0.1 mm 5 mps 760 mmHg 76%
    02:00 +12°C° 0.1 mm 5 mps 760 mmHg 77%
    03:00 +10°C° 0.1 mm 5 mps 760 mmHg 78%
    04:00 +10°C° 0.1 mm 5 mps 761 mmHg 79%
    05:00 +12°C° 0 mm 5 mps 761 mmHg 77%
    06:00 +13°C° 0 mm 5 mps 761 mmHg 74%
    07:00 +14°C° 0 mm 5 mps 761 mmHg 72%
    08:00 +15°C° 0 mm 5 mps 762 mmHg 66%
    09:00 +16°C° 0 mm 5 mps 762 mmHg 61%
    10:00 +17°C° 0 mm 5 mps 762 mmHg 55%
    11:00 +19°C° 0 mm 5 mps 762 mmHg 52%
    12:00 +19°C° 0 mm 4 mps 762 mmHg 49%
    13:00 +20°C° 0 mm 4 mps 762 mmHg 46%
    14:00 +20°C° 0 mm 4 mps 762 mmHg 46%
    15:00 +20°C° 0 mm 4 mps 762 mmHg 45%
    16:00 +20°C° 0 mm 3 mps 762 mmHg 45%
    17:00 +18°C° 0 mm 3 mps 762 mmHg 51%
    18:00 +17°C° 0 mm 2 mps 763 mmHg 57%
    19:00 +15°C° 0 mm 2 mps 763 mmHg 63%
    20:00 +15°C° 0 mm 2 mps 763 mmHg 64%
    21:00 +13°C° 0 mm 3 mps 763 mmHg 66%
    22:00 +12°C° 0 mm 3 mps 763 mmHg 67%
    23:00 +12°C° 0 mm 3 mps 763 mmHg 66%
    Show more